Wind_Speed
29 30 30 30 31 32 33 33 33 32 33 34 35 35 35 35 36 38 39 39 39 40 40 41 41 42 43 44 43 43 44 44 44 44 43 43 43 43 44 45 46 46 46 46
30 30 30 30 31 32 32 33 32 32 33 34 35 36 35 37 38 38 39 39 40 40 41 42 42 42 43 44 44 44 45 44 45 45 44 43 44 45 45 46 46 47 47 46
30 29 29 30 31 32 32 33 33 33 33 35 36 35 34 35 37 37 38 39 39 40 40 41 43 42 42 43 45 45 45 45 46 46 45 45 45 45 46 46 46 47 47 47
30 29 29 30 30 31 32 33 34 34 35 35 36 37 34 34 35 36 37 38 39 40 40 41 43 44 43 43 45 46 46 47 47 46 45 45 46 46 46 46 46 47 48 48
29 29 29 30 30 31 32 33 34 35 36 37 36 38 35 34 34 35 36 36 37 39 40 40 42 43 44 44 45 46 46 47 47 46 46 46 46 47 47 47 47 47 48 48
29 29 30 30 31 31 32 33 35 35 35 37 36 38 37 34 34 35 35 36 37 38 39 40 41 43 44 44 45 46 46 46 47 47 47 47 46 47 47 48 48 48 48 49
29 29 30 31 32 32 32 32 34 36 36 36 36 37 37 35 34 35 35 36 37 38 39 39 40 42 44 44 45 46 47 47 46 47 47 46 46 46 47 47 48 49 49 49
31 31 31 31 32 33 33 33 34 36 38 37 36 37 36 35 34 35 36 37 37 39 39 40 40 42 43 44 45 45 47 47 47 47 47 46 46 46 47 47 48 48 49 50
32 32 32 32 32 33 33 34 34 36 38 38 38 38 36 35 35 35 36 37 39 39 40 41 41 42 43 44 44 44 45 47 47 47 48 47 46 47 47 47 48 49 48 48
33 33 31 32 32 33 34 34 34 35 37 38 39 38 37 36 36 36 36 38 39 40 40 41 41 42 43 43 44 44 44 45 46 47 48 48 47 47 47 48 49 49 49 49
32 33 32 32 32 33 33 34 35 36 37 39 40 37 37 38 38 37 37 38 39 40 41 41 42 42 42 42 43 44 44 44 45 46 47 48 48 47 48 49 49 50 50 50
33 33 33 32 32 33 34 34 34 36 37 38 40 39 37 38 38 39 38 39 39 40 40 40 40 41 41 41 42 43 43 44 44 45 46 47 48 49 49 49 50 51 51 51
33 34 34 33 33 33 33 33 35 36 38 39 40 38 37 38 38 39 39 39 39 40 40 40 40 40 40 40 41 42 43 44 45 45 45 46 48 49 50 50 50 51 52 53
34 34 33 33 32 33 34 34 35 37 38 39 38 37 37 38 38 39 40 40 40 40 40 40 40 40 40 40 41 41 42 44 46 46 47 47 48 49 49 49 50 51 52 53
35 35 34 34 34 34 35 35 35 37 38 39 38 38 36 37 38 38 40 40 40 40 40 40 40 41 41 41 41 41 42 43 44 46 47 48 49 49 49 50 50 51 52 53
35 36 36 35 35 35 36 35 36 37 38 38 38 37 36 37 38 38 39 39 39 39 40 40 40 41 41 41 41 42 42 43 44 45 47 49 50 50 49 49 50 51 52 52
35 36 37 37 37 37 36 34 35 36 36 37 37 36 37 37 38 38 38 38 39 39 40 40 40 40 41 41 42 42 41 42 43 44 45 48 49 49 49 50 49 49 50 50
35 36 37 38 38 38 36 35 35 35 35 35 35 35 35 36 36 36 37 37 37 37 38 38 39 39 39 40 41 41 41 41 42 42 43 45 47 48 49 49 49 48 48 49
36 36 37 38 39 39 36 35 34 34 34 34 35 35 35 36 36 36 37 38 38 38 37 37 38 38 38 39 40 41 41 41 41 42 42 44 45 46 47 48 48 48 47 47
36 36 37 38 39 39 36 35 35 35 35 34 35 36 36 36 36 35 37 37 37 38 37 38 38 38 38 39 39 39 40 41 42 42 43 44 45 46 46 46 46 46 46 47
35 36 37 38 38 38 37 36 36 36 36 36 36 36 36 36 37 37 37 37 37 36 36 37 38 38 38 39 40 40 41 41 42 43 43 43 44 45 45 45 45 45 45 46
36 37 37 37 38 37 37 36 36 36 36 36 36 36 36 36 36 36 36 36 36 36 37 37 38 38 38 39 40 41 42 42 43 43 44 44 44 44 44 44 44 44 44 45
36 37 38 38 37 37 37 37 37 37 37 37 36 36 36 36 36 36 36 36 36 37 37 38 38 39 39 39 40 41 42 43 43 44 44 44 44 44 44 43 44 44 45 45
38 38 39 38 37 37 37 38 38 37 37 36 36 36 35 35 35 35 36 36 37 37 37 37 38 39 40 40 41 42 43 43 43 43 43 43 43 43 43 43 43 44 44 45
38 39 38 38 37 37 37 38 38 37 37 36 36 35 35 36 36 37 37 38 39 39 38 39 40 40 41 41 42 42 43 43 42 42 42 42 42 42 42 42 42 43 43 44
37 38 38 38 37 38 37 38 38 37 36 36 36 35 36 36 37 37 37 38 38 39 39 40 40 41 41 42 42 42 42 42 41 41 41 41 41 41 41 41 41 41 42 43
Wind_Direction
282 280 277 276 273 272 272 272 272 271 271 269 268 266 263 262 261 259 258 257 258 257 257 257 258 259 259 259 259 258 258 259 258 258 258 259 259 260 260 261 260 259 258 257
282 280 279 276 274 274 274 274 273 273 273 271 269 267 263 262 262 261 259 259 259 259 259 259 259 259 260 258 258 258 258 259 259 260 260 260 260 260 260 261 260 259 258 256
283 281 279 277 276 275 274 275 274 273 274 272 271 268 265 264 263 262 261 260 258 259 259 260 261 260 260 259 258 258 258 259 260 261 261 261 261 261 261 261 259 258 257 256
284 282 279 278 277 277 276 276 276 275 275 274 272 271 267 266 264 263 262 261 260 260 260 262 262 261 261 260 258 258 259 259 260 261 261 262 261 261 261 260 259 257 256 255
286 283 281 280 279 278 278 278 278 277 276 275 273 273 271 269 267 265 264 263 262 262 263 264 264 264 263 263 262 260 260 261 260 262 262 262 260 260 259 259 258 257 257 256
288 284 281 280 279 279 279 279 279 278 278 276 275 275 274 272 270 269 268 266 264 265 266 266 265 265 264 265 264 261 260 261 261 261 262 262 261 259 258 258 257 257 257 256
290 287 284 281 278 278 278 279 280 279 278 278 277 277 277 275 273 272 271 269 267 267 267 268 267 265 265 265 266 264 263 261 260 259 261 261 261 259 259 259 258 257 257 256
292 290 287 284 281 280 279 279 280 281 280 280 278 277 279 277 276 275 274 272 269 269 269 270 269 268 267 267 266 266 264 262 261 260 260 261 261 260 259 259 258 258 259 258
294 291 288 286 284 281 279 279 281 281 281 281 279 279 278 277 277 277 275 273 271 271 271 271 270 269 269 268 267 267 266 264 263 262 260 260 261 260 258 258 258 259 258 258
295 292 289 288 285 282 281 281 281 281 282 283 283 281 280 278 278 279 278 275 273 273 273 272 271 271 270 269 268 267 267 266 265 264 263 262 261 260 259 257 258 258 259 258
295 294 293 289 287 284 281 281 281 280 281 283 284 283 281 280 280 279 279 278 276 274 274 274 273 272 272 271 269 268 268 267 267 266 265 264 263 262 260 259 259 259 259 258
296 296 294 291 289 288 284 283 282 280 280 282 283 283 282 280 280 278 278 278 277 276 276 275 274 273 272 272 270 269 268 267 267 267 265 265 264 264 263 261 260 260 259 259
296 296 296 293 290 290 288 284 282 281 280 281 282 283 282 279 278 278 278 277 277 277 277 275 275 274 272 271 271 269 269 268 268 268 267 266 265 265 265 264 263 262 261 260
294 295 295 295 293 291 289 285 283 282 281 283 283 284 281 279 278 278 277 276 277 277 278 276 274 274 272 271 271 270 269 269 268 267 267 266 266 266 265 264 263 263 262 261
293 294 295 294 292 291 290 288 285 283 283 283 283 282 282 280 279 278 277 277 278 278 277 277 276 274 273 272 271 270 271 271 270 269 268 267 267 266 266 265 264 263 263 262
294 294 294 292 292 291 290 289 287 285 284 285 284 282 281 280 279 279 278 278 278 278 277 277 277 276 275 273 272 272 272 272 272 271 270 269 268 268 267 266 265 264 263 263
294 294 294 293 292 292 292 293 290 287 285 284 283 284 283 282 281 279 279 279 279 279 278 278 278 277 277 276 275 274 274 274 274 274 273 271 270 268 267 267 266 265 264 263
296 295 294 294 293 292 296 294 292 290 287 286 284 284 283 283 282 281 280 279 279 280 280 280 279 277 277 278 277 276 275 275 275 274 274 273 272 270 269 269 267 267 266 264
296 295 295 295 295 295 296 296 295 292 289 286 285 284 284 284 284 283 282 281 280 280 280 280 280 280 280 280 280 278 276 275 275 275 275 276 274 272 270 269 268 267 266 265
295 295 295 296 295 297 298 296 295 292 290 288 286 285 284 284 284 284 283 283 281 281 280 281 281 282 282 282 282 280 279 277 277 277 277 277 275 273 271 270 269 267 266 266
294 295 295 295 295 295 296 296 295 293 292 290 288 286 285 285 286 285 285 284 282 281 282 282 282 282 283 283 283 282 281 280 279 279 278 278 277 275 273 271 269 268 268 267
294 295 295 295 295 296 295 295 295 293 292 290 289 287 287 286 286 285 284 283 282 283 283 283 283 283 284 284 283 283 283 282 282 280 280 279 278 276 274 272 270 269 269 268
293 293 293 294 294 294 293 293 293 292 291 289 289 288 287 286 286 285 285 285 284 284 283 283 283 283 284 284 284 284 284 284 283 282 280 279 278 277 275 273 272 270 270 270
292 292 292 293 293 292 291 291 291 291 291 290 288 288 287 286 286 285 285 286 286 286 285 285 285 285 285 285 285 284 284 284 284 283 281 280 278 277 276 274 273 272 272 272
293 292 292 292 292 291 291 290 290 290 290 290 289 288 287 286 285 285 286 286 287 286 286 286 286 286 286 286 285 285 285 285 285 283 281 280 278 277 276 275 275 274 274 274
293 293 292 292 291 290 291 291 291 290 289 290 289 288 288 288 287 286 287 288 288 287 286 287 287 288 287 287 286 286 286 285 285 283 282 280 279 278 277 276 276 275 275 274
Height
5680 5679 5677 5677 5675 5674 5673 5673 5673 5673 5672 5671 5671 5671 5672 5672 5673 5674 5676 5677 5679 5680 5681 5682 5683 5684 5685 5686 5688 5689 5690 5691 5693 5694 5695 5696 5698 5699 5700 5701 5703 5704 5705 5707
5672 5671 5671 5668 5667 5666 5665 5665 5665 5665 5663 5662 5662 5662 5664 5664 5664 5665 5666 5668 5669 5670 5671 5671 5672 5673 5674 5675 5676 5677 5678 5680 5681 5683 5683 5684 5686 5687 5688 5689 5690 5692 5693 5695
5664 5664 5662 5661 5659 5658 5657 5657 5656 5656 5655 5653 5653 5654 5655 5655 5655 5656 5657 5658 5659 5660 5660 5661 5661 5662 5663 5663 5664 5665 5667 5668 5669 5670 5671 5672 5673 5674 5675 5676 5678 5679 5680 5682
5656 5656 5654 5652 5651 5650 5650 5649 5648 5646 5645 5644 5644 5642 5647 5646 5646 5646 5647 5648 5648 5649 5649 5650 5650 5651 5651 5652 5652 5653 5654 5655 5656 5657 5658 5659 5660 5662 5663 5664 5665 5666 5668 5669
5648 5648 5646 5645 5644 5643 5642 5641 5639 5637 5636 5635 5635 5632 5636 5637 5637 5637 5638 5638 5638 5639 5639 5639 5639 5639 5640 5640 5640 5641 5641 5642 5644 5644 5645 5646 5647 5648 5649 5651 5652 5653 5655 5657
5641 5639 5638 5637 5636 5635 5634 5633 5630 5628 5626 5625 5626 5624 5625 5627 5628 5628 5628 5627 5627 5628 5628 5628 5628 5627 5628 5628 5627 5628 5629 5629 5630 5631 5632 5633 5634 5635 5636 5638 5639 5641 5642 5644
5633 5632 5630 5629 5628 5627 5625 5624 5621 5618 5616 5616 5617 5614 5616 5618 5618 5618 5617 5617 5617 5617 5616 5616 5616 5616 5615 5615 5615 5615 5616 5617 5617 5618 5619 5620 5621 5622 5624 5625 5627 5628 5629 5631
5625 5624 5623 5620 5619 5618 5616 5615 5613 5610 5608 5608 5607 5605 5609 5609 5608 5607 5607 5606 5606 5605 5605 5604 5604 5604 5603 5603 5603 5603 5603 5604 5604 5605 5606 5607 5608 5609 5611 5613 5614 5615 5616 5618
5617 5616 5614 5612 5610 5609 5607 5606 5605 5602 5599 5597 5597 5598 5599 5599 5598 5597 5596 5595 5594 5594 5593 5593 5592 5592 5591 5591 5590 5590 5590 5591 5591 5592 5593 5594 5595 5596 5598 5599 5601 5602 5603 5604
5608 5607 5606 5604 5602 5600 5599 5598 5595 5592 5589 5587 5587 5588 5590 5589 5588 5587 5586 5584 5583 5582 5582 5581 5580 5579 5579 5578 5577 5577 5578 5578 5578 5579 5580 5581 5582 5583 5584 5586 5587 5588 5589 5590
5601 5599 5597 5595 5593 5591 5590 5589 5585 5583 5580 5578 5576 5581 5580 5579 5577 5577 5575 5573 5572 5571 5570 5569 5568 5567 5567 5566 5565 5565 5565 5565 5565 5566 5567 5567 5568 5569 5571 5572 5573 5574 5575 5576
5593 5591 5588 5587 5585 5582 5580 5579 5577 5575 5572 5569 5566 5571 5571 5569 5566 5565 5564 5562 5561 5560 5559 5557 5556 5556 5555 5554 5553 5553 5553 5553 5553 5553 5554 5554 5555 5555 5556 5557 5559 5559 5561 5562
5585 5582 5580 5578 5578 5574 5571 5570 5568 5565 5562 5560 5557 5562 5560 5558 5555 5554 5553 5551 5549 5548 5547 5546 5545 5544 5543 5542 5541 5541 5540 5540 5540 5540 5540 5540 5541 5542 5542 5543 5543 5544 5545 5546
5576 5574 5573 5570 5568 5565 5562 5561 5558 5555 5552 5550 5549 5549 5550 5547 5545 5543 5541 5539 5538 5537 5536 5535 5534 5532 5531 5530 5529 5529 5528 5527 5526 5526 5526 5526 5527 5527 5527 5528 5528 5528 5529 5530
5568 5566 5563 5561 5558 5555 5553 5551 5548 5545 5543 5540 5540 5538 5539 5536 5534 5532 5530 5528 5527 5526 5525 5524 5522 5521 5519 5518 5517 5516 5515 5514 5513 5513 5512 5512 5512 5512 5512 5512 5512 5513 5513 5513
5559 5556 5554 5552 5549 5546 5543 5542 5539 5536 5533 5530 5528 5528 5528 5525 5523 5521 5519 5518 5516 5515 5513 5512 5510 5509 5507 5506 5505 5503 5502 5501 5500 5499 5498 5497 5497 5497 5497 5497 5497 5497 5497 5497
5551 5547 5544 5542 5540 5535 5534 5534 5530 5527 5524 5521 5518 5519 5516 5514 5512 5510 5508 5506 5505 5503 5502 5500 5499 5497 5496 5494 5492 5491 5490 5488 5487 5486 5484 5483 5483 5482 5482 5482 5482 5481 5481 5482
5542 5538 5534 5531 5529 5526 5528 5523 5520 5516 5515 5512 5508 5507 5505 5503 5501 5499 5497 5495 5494 5492 5491 5489 5487 5486 5484 5482 5481 5479 5477 5475 5474 5473 5471 5470 5468 5468 5467 5467 5467 5467 5466 5467
5533 5529 5525 5521 5517 5515 5516 5513 5509 5506 5504 5502 5499 5497 5494 5492 5491 5490 5487 5485 5483 5482 5480 5478 5476 5475 5473 5471 5469 5467 5465 5463 5462 5460 5458 5456 5455 5454 5453 5453 5453 5453 5453 5453
5524 5520 5517 5512 5507 5505 5507 5503 5498 5496 5494 5492 5489 5487 5485 5482 5481 5480 5477 5474 5472 5471 5469 5467 5466 5464 5462 5460 5457 5455 5453 5451 5449 5447 5446 5444 5442 5440 5440 5439 5439 5439 5439 5439
5515 5511 5508 5503 5498 5496 5495 5492 5489 5487 5486 5482 5478 5476 5474 5472 5470 5469 5466 5464 5462 5460 5458 5456 5454 5452 5450 5448 5446 5444 5442 5439 5437 5435 5433 5431 5429 5427 5426 5426 5425 5425 5425 5426
5505 5501 5498 5494 5490 5490 5486 5482 5480 5477 5474 5471 5468 5466 5464 5462 5459 5457 5455 5453 5451 5449 5447 5445 5443 5441 5439 5437 5435 5432 5430 5427 5425 5423 5421 5419 5417 5415 5414 5413 5412 5411 5411 5412
5496 5493 5489 5486 5485 5480 5476 5473 5470 5467 5464 5461 5458 5456 5454 5452 5449 5447 5445 5443 5440 5438 5436 5434 5432 5430 5427 5425 5422 5420 5417 5415 5412 5410 5408 5406 5404 5402 5401 5400 5399 5398 5398 5398
5486 5482 5479 5476 5473 5470 5466 5462 5460 5457 5453 5450 5448 5446 5444 5442 5439 5437 5435 5432 5430 5427 5425 5423 5420 5418 5415 5413 5410 5407 5404 5402 5399 5397 5395 5393 5391 5390 5388 5387 5386 5385 5384 5384
5476 5472 5468 5465 5463 5459 5456 5452 5449 5447 5443 5441 5438 5436 5433 5431 5429 5427 5424 5421 5419 5416 5413 5411 5409 5406 5403 5401 5398 5395 5392 5389 5387 5384 5382 5380 5379 5377 5376 5375 5373 5372 5371 5369
5466 5462 5458 5456 5452 5449 5446 5443 5439 5437 5434 5431 5428 5426 5423 5420 5418 5415 5413 5410 5407 5405 5402 5399 5397 5394 5391 5388 5385 5382 5379 5376 5374 5372 5370 5368 5366 5365 5363 5362 5361 5359 5357 5356